GW3250 Weather Reports


time (UTC)temp
F
wind
direction
speed
knots
gust
knots
rain 1hr
in
rain 24hr
in
rain mn
in
humidity
%
barometer
mb
20260831141937 68 209 0.0 0.9 0.00 0.00 0.00 90 1019.3
20260831141432 68 208 0.0 0.0 0.00 0.00 0.00 89 1019.3
20260831140927 68 208 0.0 0.9 0.00 0.00 0.00 89 1019.3
20260831140426 68 204 0.0 0.9 0.00 0.00 0.00 90 1019.0
20260831135926 68 200 0.0 0.9 0.00 0.00 0.00 90 1019.3
20260831135425 67 200 0.0 0.0 0.00 0.00 0.00 93 1019.5
20260831134920 67 186 0.9 1.7 0.00 0.00 0.00 93 1019.5
20260831134417 67 167 0.0 0.0 0.00 0.00 0.00 93 1019.3
20260831133916 66 187 0.0 0.9 0.00 0.00 0.00 94 1019.2
20260831133411 66 167 0.0 0.0 0.00 0.00 0.00 95 1019.4
20260831132906 66 204 0.9 1.7 0.00 0.00 0.00 95 1019.3
20260831132401 66 212 1.7 1.7 0.00 0.00 0.00 95 1019.2
20260831131901 65 198 0.9 0.9 0.00 0.00 0.00 97 1019.0
20260831131356 65 195 0.9 0.9 0.00 0.00 0.00 97 1019.3
20260831130852 65 191 0.9 0.9 0.00 0.00 0.00 96 1019.3
20260831130348 65 107 0.0 0.9 0.00 0.00 0.00 95 1019.2
20260831125846 65 177 0.0 0.0 0.00 0.00 0.00 96 1019.0
20260831125342 64 177 0.9 0.9 0.00 0.00 0.00 97 1019.1
20260831124842 64 170 0.0 0.9 0.00 0.00 0.00 96 1019.3
20260831124339 64 170 0.0 0.0 0.00 0.00 0.00 98 1019.5
20260831123838 63 198 0.0 0.0 0.00 0.00 0.00 99 1019.5
20260831123337 63 198 0.0 0.0 0.00 0.00 0.00 99 1019.3
20260831122832 62 198 0.0 0.0 0.00 0.00 0.00 99 1019.3
20260831122328 62 198 0.0 0.0 0.00 0.00 0.00 99 1019.3
20260831121828 62 198 0.0 0.0 0.00 0.00 0.00 99 1019.4
20260831121324 62 185 0.9 0.9 0.00 0.00 0.00 99 1019.4
20260831120820 62 184 0.0 0.0 0.00 0.00 0.00 99 1019.2
20260831120314 62 175 0.9 0.9 0.00 0.00 0.00 99 1019.1
20260831115809 62 174 0.0 0.0 0.00 0.00 0.00 99 1019.3
20260831115306 62 174 0.0 0.0 0.00 0.00 0.00 99 1019.0
20260831114804 62 174 0.0 0.0 0.00 0.00 0.00 99 1019.2
20260831114304 62 174 0.0 0.0 0.00 0.00 0.00 99 1019.0
20260831113800 61 174 0.0 0.0 0.00 0.00 0.00 99 1019.1
20260831113259 61 174 0.0 0.0 0.00 0.00 0.00 99 1018.6
20260831112754 61 174 0.0 0.0 0.00 0.00 0.00 99 1019.3
20260831112249 61 174 0.0 0.0 0.00 0.00 0.00 99 1018.9
20260831111745 61 174 0.0 0.0 0.00 0.00 0.00 99 1018.9
20260831111241 61 174 0.0 0.0 0.00 0.00 0.00 99 1018.7
20260831110737 61 174 0.0 0.0 0.00 0.00 0.00 99 1018.6
20260831110232 61 174 0.0 0.0 0.00 0.00 0.00 99 1018.6
20260831105730 60 174 0.0 0.0 0.00 0.00 0.00 99 1018.6
20260831105226 61 174 0.0 0.0 0.00 0.00 0.00 99 1018.5
20260831104721 61 174 0.0 0.0 0.00 0.00 0.00 99 1018.3
20260831104218 61 174 0.9 1.7 0.00 0.00 0.00 99 1018.5
20260831103717 61 174 0.9 0.9 0.00 0.00 0.00 99 1018.3
20260831103213 61 173 0.0 0.0 0.00 0.00 0.00 99 1018.1
20260831102712 61 173 0.0 0.9 0.00 0.00 0.00 99 1018.0
20260831102208 61 173 0.0 0.0 0.00 0.00 0.00 99 1018.1
20260831101703 61 173 0.0 0.0 0.00 0.00 0.00 99 1018.2
20260831101158 61 173 0.0 0.0 0.00 0.00 0.00 99 1018.2
20260831100654 61 173 0.0 0.0 0.00 0.00 0.00 99 1018.2
20260831100150 62 173 0.9 0.9 0.00 0.00 0.00 99 1018.2
20260831095648 61 178 0.0 0.9 0.00 0.00 0.00 99 1018.2
20260831095143 61 178 0.0 0.0 0.00 0.00 0.00 99 1018.2
20260831094638 62 178 0.0 0.0 0.00 0.00 0.00 99 1018.1
20260831094135 62 178 0.0 0.0 0.00 0.00 0.00 99 1018.2
20260831093630 62 178 0.0 0.0 0.00 0.00 0.00 99 1018.3
20260831093126 62 178 0.0 0.0 0.00 0.00 0.00 99 1018.1
20260831092622 62 178 0.0 0.0 0.00 0.00 0.00 99 1018.1
20260831092117 62 179 0.9 0.9 0.00 0.00 0.00 99 1018.1
20260831091617 62 164 0.0 0.0 0.00 0.00 0.00 99 1018.0
20260831091112 62 164 0.0 0.0 0.00 0.00 0.00 99 1018.3
20260831090608 62 164 0.0 0.0 0.00 0.00 0.00 99 1018.2
20260831090104 62 164 0.0 0.0 0.00 0.00 0.00 99 1018.2
20260831085559 62 164 0.0 0.0 0.00 0.00 0.00 99 1018.2
20260831085054 62 164 0.0 0.0 0.00 0.00 0.00 99 1018.3
20260831084550 62 164 0.0 0.0 0.00 0.00 0.00 99 1018.1
20260831084046 62 164 0.0 0.0 0.00 0.00 0.00 99 1018.3
20260831083541 62 164 0.0 0.0 0.00 0.00 0.00 99 1018.1
20260831083036 62 164 0.0 0.0 0.00 0.00 0.00 99 1018.1
20260831082529 62 164 0.0 0.0 0.00 0.00 0.00 99 1018.3
20260831082024 63 164 0.0 0.0 0.00 0.00 0.00 99 1018.4
20260831081520 63 164 0.0 0.0 0.00 0.00 0.00 99 1018.2
20260831081016 63 164 0.0 0.0 0.00 0.00 0.00 98 1018.3
20260831080510 63 164 0.0 0.0 0.00 0.00 0.00 98 1018.0
20260831080007 63 164 0.0 0.0 0.00 0.00 0.00 98 1018.0
20260831075501 63 164 0.0 0.0 0.00 0.00 0.00 98 1018.0
20260831074957 64 164 0.0 0.0 0.00 0.00 0.00 98 1018.1
20260831074456 64 164 0.0 0.0 0.00 0.00 0.00 97 1018.2
20260831073951 64 164 0.0 0.0 0.00 0.00 0.00 98 1018.0
20260831073450 64 164 0.0 0.0 0.00 0.00 0.00 98 1017.9
20260831072949 64 164 0.0 0.0 0.00 0.00 0.00 97 1018.1
20260831072445 64 164 0.0 0.0 0.00 0.00 0.00 97 1017.9
20260831071942 64 164 0.0 0.0 0.00 0.00 0.00 97 1018.1
20260831071441 64 164 0.0 0.0 0.00 0.00 0.00 97 1018.2
20260831070935 64 165 0.0 0.0 0.00 0.00 0.00 97 1018.2
20260831070430 64 165 0.0 0.0 0.00 0.00 0.00 97 1018.2
20260831065929 64 165 0.0 0.0 0.00 0.00 0.00 97 1018.0
20260831065427 64 165 0.0 0.0 0.00 0.00 0.00 98 1018.0
20260831064922 64 165 0.0 0.0 0.00 0.00 0.00 98 1017.9
20260831064417 64 165 0.0 0.0 0.00 0.00 0.00 98 1018.0
20260831063913 64 165 0.0 0.0 0.00 0.00 0.00 98 1018.2
20260831063408 64 165 0.0 0.0 0.00 0.00 0.00 98 1018.2
20260831062902 64 165 0.0 0.0 0.00 0.00 0.00 98 1018.2
20260831062357 63 165 0.0 0.0 0.00 0.00 0.00 99 1018.0
20260831061855 63 165 0.0 0.0 0.00 0.00 0.00 99 1018.0
20260831061349 63 165 0.0 0.0 0.00 0.00 0.00 99 1018.2
20260831060846 63 165 0.0 0.0 0.00 0.00 0.00 99 1018.1
20260831060345 63 165 0.0 0.0 0.00 0.00 0.00 99 1018.2
20260831055839 63 165 0.0 0.0 0.00 0.00 0.00 99 1018.2
20260831055335 63 165 0.0 0.0 0.00 0.00 0.00 99 1018.3
20260831054830 63 165 0.0 0.0 0.00 0.00 0.00 99 1018.3
20260831054325 63 165 0.0 0.0 0.00 0.00 0.00 99 1018.3
20260831053823 63 165 0.0 0.0 0.00 0.00 0.00 99 1018.1
20260831053317 64 165 0.0 0.0 0.00 0.00 0.00 98 1018.2
20260831052812 64 165 0.0 0.0 0.00 0.00 0.00 98 1018.3
20260831052311 64 165 0.0 0.0 0.00 0.00 0.00 98 1018.0
20260831051809 64 165 0.0 0.0 0.00 0.00 0.00 98 1018.2
20260831051308 64 165 0.0 0.0 0.00 0.00 0.00 98 1018.1
20260831050803 64 165 0.0 0.0 0.00 0.00 0.00 97 1018.3
20260831050301 64 165 0.0 0.0 0.00 0.00 0.00 97 1018.2
20260831045750 64 165 0.0 0.0 0.00 0.00 0.00 97 1018.2
20260831045245 64 165 0.0 0.0 0.00 0.00 0.00 97 1018.0
20260831044740 65 165 0.0 0.0 0.00 0.00 0.00 96 1018.2
20260831044234 65 182 0.0 0.0 0.00 0.00 0.00 97 1018.0
20260831043731 65 182 0.0 0.0 0.00 0.00 0.00 97 1018.3
20260831043231 65 182 0.9 0.9 0.00 0.00 0.00 97 1018.3
20260831042725 65 182 0.0 0.0 0.00 0.00 0.00 96 1018.2
20260831042220 65 194 0.0 0.0 0.00 0.00 0.00 97 1018.2
20260831041715 65 194 0.0 0.0 0.00 0.00 0.00 97 1018.3
20260831041214 65 194 0.0 0.0 0.00 0.00 0.00 97 1018.4
20260831040709 65 194 0.0 0.0 0.00 0.00 0.00 98 1018.2
20260831040208 65 193 0.0 0.0 0.00 0.00 0.00 98 1018.1
20260831035706 65 183 0.9 0.9 0.00 0.00 0.00 98 1018.3
20260831035156 65 195 0.9 0.9 0.00 0.00 0.00 98 1018.5
20260831034655 65 195 0.0 0.0 0.00 0.00 0.00 99 1018.3
20260831034150 65 195 0.0 0.0 0.00 0.00 0.00 98 1018.1
20260831033646 66 195 0.0 0.0 0.00 0.00 0.00 98 1018.2
20260831033140 66 195 0.9 1.7 0.00 0.00 0.00 98 1018.1
20260831032640 66 195 0.0 0.9 0.00 0.00 0.00 98 1018.1
20260831032136 66 195 0.0 0.0 0.00 0.00 0.00 98 1018.4
20260831031636 66 195 0.0 0.0 0.00 0.00 0.00 98 1018.4
20260831031135 66 195 0.0 0.0 0.00 0.00 0.00 98 1018.4
20260831030634 66 195 0.0 0.0 0.00 0.00 0.00 98 1018.0
20260831030133 66 195 0.0 0.9 0.00 0.00 0.00 98 1018.4
20260831025632 66 195 0.0 0.0 0.00 0.00 0.00 99 1018.3
20260831025127 66 195 0.0 0.9 0.00 0.00 0.00 99 1018.1
20260831024623 66 195 0.0 0.0 0.00 0.00 0.00 99 1018.4
20260831024122 66 194 0.0 0.0 0.00 0.00 0.00 98 1018.3
20260831023620 66 194 0.0 0.0 0.00 0.00 0.00 98 1018.4
20260831023120 66 194 0.0 0.0 0.00 0.00 0.00 98 1018.2
20260831022615 66 195 0.0 0.9 0.00 0.00 0.00 98 1018.6
20260831022110 66 195 0.0 0.0 0.00 0.00 0.00 98 1018.4
20260831021609 66 195 0.0 0.0 0.00 0.00 0.00 97 1018.5
20260831021104 66 195 0.0 0.0 0.00 0.00 0.00 97 1018.3
20260831020559 66 195 0.9 0.9 0.00 0.00 0.00 97 1018.6
20260831020054 66 195 0.0 0.0 0.00 0.00 0.00 97 1018.2
20260831015550 66 195 0.0 0.0 0.00 0.00 0.00 96 1018.5
20260831015044 67 195 0.0 0.0 0.00 0.00 0.00 96 1018.3
20260831014539 67 195 0.0 0.9 0.00 0.00 0.00 96 1018.4
20260831014035 67 195 0.0 0.0 0.00 0.00 0.00 96 1018.1
20260831013531 67 195 0.0 0.9 0.00 0.00 0.00 96 1018.4
20260831013025 66 195 0.0 0.0 0.00 0.00 0.00 97 1018.2
20260831012520 66 195 0.0 0.0 0.00 0.00 0.00 97 1018.4
20260831012015 67 195 0.0 0.0 0.00 0.00 0.00 96 1018.3
20260831011514 67 195 0.0 0.0 0.00 0.00 0.00 96 1018.2
20260831011010 67 195 0.0 0.0 0.00 0.00 0.00 96 1018.3
20260831010505 67 195 0.0 0.0 0.00 0.00 0.00 96 1018.0
20260831010002 67 195 0.0 0.0 0.00 0.00 0.00 96 1018.0
20260831005457 67 195 0.0 0.9 0.00 0.00 0.00 96 1018.0
20260831004955 67 195 0.0 0.0 0.00 0.00 0.00 96 1018.2
20260831004452 67 194 0.0 0.9 0.00 0.00 0.00 96 1017.7
20260831003947 67 194 0.0 0.0 0.00 0.00 0.00 95 1017.7
20260831003443 67 194 0.0 0.0 0.00 0.00 0.00 95 1017.9
20260831002942 68 194 0.0 0.0 0.00 0.00 0.00 95 1017.6
20260831002441 68 194 0.9 0.9 0.00 0.00 0.00 95 1017.7
20260831001937 68 194 0.9 0.9 0.00 0.00 0.00 94 1017.6
20260831001427 68 194 0.9 1.7 0.00 0.00 0.00 94 1017.5
20260831000924 68 194 0.0 0.9 0.00 0.00 0.00 94 1017.4
20260831000419 68 186 0.0 0.9 0.00 0.00 0.00 95 1017.5
20260830235912 68 179 0.0 0.9 0.00 0.00 0.00 95 1017.4
20260830235407 68 179 0.0 0.0 0.00 0.00 0.00 95 1017.1
20260830234902 68 179 0.9 0.9 0.00 0.00 0.00 95 1017.2
20260830234357 68 179 0.9 0.9 0.00 0.00 0.00 94 1017.2
20260830233853 68 176 0.9 0.9 0.00 0.00 0.00 94 1017.2
20260830233348 69 184 0.9 0.9 0.00 0.00 0.00 94 1017.0
20260830232844 69 182 0.0 0.9 0.00 0.00 0.00 93 1017.4
20260830232339 69 199 0.0 0.9 0.00 0.00 0.00 93 1017.2
20260830231836 69 175 0.9 0.9 0.00 0.00 0.00 92 1017.1
20260830231336 70 172 0.9 0.9 0.00 0.00 0.00 91 1017.3
20260830230830 70 184 0.0 0.0 0.00 0.00 0.00 92 1016.9
20260830230325 69 197 1.7 2.6 0.00 0.00 0.00 93 1016.9
20260830225819 69 137 0.0 0.0 0.00 0.00 0.00 95 1016.9
20260830225314 69 137 0.0 0.0 0.00 0.00 0.00 95 1016.7
20260830224809 69 137 0.0 0.0 0.00 0.00 0.00 95 1016.8
20260830224303 70 137 0.0 0.0 0.00 0.00 0.00 94 1017.0
20260830223800 70 137 0.0 0.0 0.00 0.00 0.00 92 1017.0
20260830223255 71 137 0.0 0.0 0.00 0.00 0.00 90 1016.8
20260830222749 71 137 0.9 1.7 0.00 0.00 0.00 89 1017.0
20260830222246 71 137 0.0 0.0 0.00 0.00 0.00 89 1016.9
20260830221740 71 137 0.0 0.0 0.00 0.00 0.00 90 1017.0
20260830221238 71 137 0.9 0.9 0.00 0.00 0.00 90 1016.7
20260830220733 71 136 0.0 0.0 0.00 0.00 0.00 91 1016.7
20260830220231 71 136 0.0 0.0 0.00 0.00 0.00 91 1016.8
20260830215730 72 136 0.0 0.0 0.00 0.00 0.00 90 1016.9
20260830215225 71 64 0.0 0.0 0.00 0.00 0.00 90 1016.8
20260830214720 71 64 0.0 0.0 0.00 0.00 0.00 90 1016.9
20260830214215 72 64 0.0 0.0 0.00 0.00 0.00 89 1016.6
20260830213714 72 64 0.0 0.0 0.00 0.00 0.00 88 1016.6
20260830213209 72 58 0.0 0.0 0.00 0.00 0.00 89 1016.7
20260830212700 72 58 0.0 0.0 0.00 0.00 0.00 89 1016.8
20260830212155 73 58 0.9 0.9 0.00 0.00 0.00 87 1016.8
20260830211654 73 58 0.0 0.9 0.00 0.00 0.00 86 1016.5
20260830211153 73 58 0.0 0.9 0.00 0.00 0.00 86 1016.7
20260830210649 73 58 0.9 0.9 0.00 0.00 0.00 86 1016.6
20260830210149 72 59 0.0 0.9 0.00 0.00 0.00 87 1016.6
20260830205646 72 99 0.9 1.7 0.00 0.00 0.00 86 1016.8
20260830205141 73 206 0.0 0.0 0.00 0.00 0.00 88 1016.7
20260830204641 73 206 0.0 0.0 0.00 0.00 0.00 86 1016.8
20260830204140 73 206 0.9 0.9 0.00 0.00 0.00 85 1016.8
20260830203636 74 206 0.0 0.0 0.00 0.00 0.00 85 1016.5
20260830203131 75 196 0.9 0.9 0.00 0.00 0.00 84 1016.9
20260830202631 75 195 0.0 0.9 0.00 0.00 0.00 83 1016.8
20260830202126 75 110 0.9 0.9 0.00 0.00 0.00 83 1016.6
20260830201625 76 151 0.9 0.9 0.00 0.00 0.00 82 1016.6
20260830201121 76 255 0.0 0.0 0.00 0.00 0.00 82 1016.7
20260830200616 75 256 0.9 0.9 0.00 0.00 0.00 83 1016.7
20260830200115 75 256 0.9 0.9 0.00 0.00 0.00 84 1016.7
20260830195611 75 237 0.9 0.9 0.00 0.00 0.00 83 1016.8
20260830195109 75 239 0.9 0.9 0.00 0.00 0.00 83 1016.7
20260830194608 76 156 0.9 0.9 0.00 0.00 0.00 82 1017.0
20260830194103 76 156 0.0 0.0 0.00 0.00 0.00 80 1017.0
20260830193602 76 178 0.9 1.7 0.00 0.00 0.00 79 1016.9
20260830193057 76 175 0.9 1.7 0.00 0.00 0.00 81 1016.8
20260830192553 76 179 1.7 2.6 0.00 0.00 0.00 78 1017.0
20260830192047 75 196 0.9 0.9 0.00 0.00 0.00 84 1017.0
20260830191542 75 195 1.7 2.6 0.00 0.00 0.00 82 1017.0
20260830191037 75 203 1.7 1.7 0.00 0.00 0.00 82 1017.1
20260830190532 74 171 0.9 1.7 0.00 0.00 0.00 81 1017.1
20260830190028 75 179 1.7 1.7 0.00 0.00 0.00 83 1017.2
20260830185521 75 139 0.9 0.9 0.00 0.00 0.00 82 1017.2
20260830185017 76 212 1.7 2.6 0.00 0.00 0.00 82 1017.5
20260830184516 76 70 0.0 0.0 0.00 0.00 0.00 83 1017.4
20260830184012 76 217 1.7 2.6 0.00 0.00 0.00 81 1017.4
20260830183511 77 56 0.0 0.0 0.00 0.00 0.00 83 1017.3
20260830183007 76 212 0.0 0.9 0.00 0.00 0.00 83 1017.3
20260830182502 76 183 0.9 1.7 0.00 0.00 0.00 83 1017.4
20260830181959 77 214 0.0 0.0 0.00 0.00 0.00 83 1017.7
20260830181454 77 214 0.9 1.7 0.00 0.00 0.00 82 1017.5
20260830180948 78 213 0.9 0.9 0.00 0.00 0.00 79 1017.7
20260830180448 78 215 1.7 1.7 0.00 0.00 0.00 80 1017.7
20260830175946 78 179 0.9 0.9 0.00 0.00 0.00 80 1017.8
20260830175441 77 194 0.0 0.9 0.00 0.00 0.00 80 1017.6
20260830174936 78 181 0.9 0.9 0.00 0.00 0.00 79 1017.5
20260830174431 77 187 0.9 0.9 0.00 0.00 0.00 81 1017.7
20260830173921 78 204 1.7 1.7 0.00 0.00 0.00 78 1017.8
20260830173416 78 222 1.7 1.7 0.00 0.00 0.00 78 1017.8
20260830172912 79 202 1.7 2.6 0.00 0.00 0.00 77 1017.7
20260830172409 78 193 0.0 0.9 0.00 0.00 0.00 78 1017.8
20260830171904 77 173 0.9 0.9 0.00 0.00 0.00 80 1017.8
20260830171359 77 215 0.9 1.7 0.00 0.00 0.00 81 1017.9
20260830170854 76 216 0.9 1.7 0.00 0.00 0.00 84 1018.1
20260830170353 75 217 0.0 0.0 0.00 0.00 0.00 81 1018.0
20260830165851 75 232 3.5 3.5 0.00 0.00 0.00 84 1018.3
20260830165348 75 162 0.9 0.9 0.00 0.00 0.00 85 1018.0
20260830164844 75 226 1.7 1.7 0.00 0.00 0.00 86 1018.2
20260830164340 75 223 0.9 0.9 0.00 0.00 0.00 83 1018.3
20260830163837 75 230 1.7 1.7 0.00 0.00 0.00 82 1018.2
20260830163332 76 181 0.9 0.9 0.00 0.00 0.00 80 1018.1
20260830162831 76 136 0.9 0.9 0.00 0.00 0.00 82 1018.3
20260830162328 76 177 1.7 2.6 0.00 0.00 0.00 82 1018.3
20260830161828 75 220 0.9 0.9 0.00 0.00 0.00 82 1018.7
20260830161327 76 129 1.7 1.7 0.00 0.00 0.00 82 1018.7
20260830160823 75 205 0.9 0.9 0.00 0.00 0.00 85 1018.6
20260830160318 75 210 0.9 1.7 0.00 0.00 0.00 81 1018.9
20260830155814 73 295 0.0 0.9 0.00 0.00 0.00 86 1018.6
20260830155311 73 232 0.9 0.9 0.00 0.00 0.00 84 1018.6
20260830154810 73 276 2.6 3.5 0.00 0.00 0.00 84 1018.7
20260830154306 73 188 0.9 0.9 0.00 0.00 0.00 84 1019.0
20260830153803 72 186 0.9 0.9 0.00 0.00 0.00 84 1019.3
20260830153258 73 145 0.0 0.9 0.00 0.00 0.00 84 1018.7
20260830152756 73 142 1.7 2.6 0.00 0.00 0.00 81 1019.0
20260830152251 73 150 0.9 1.7 0.00 0.00 0.00 79 1019.1
20260830151751 73 155 0.0 0.9 0.00 0.00 0.00 82 1019.0
20260830151250 72 119 0.0 0.9 0.00 0.00 0.00 80 1019.4
20260830150745 72 71 0.9 0.9 0.00 0.00 0.00 80 1019.1
20260830150245 71 188 0.0 0.9 0.00 0.00 0.00 81 1019.6
20260830145740 72 129 0.0 0.9 0.00 0.00 0.00 80 1019.5
20260830145235 72 221 1.7 2.6 0.00 0.00 0.00 78 1019.2
20260830144730 71 128 0.9 1.7 0.00 0.00 0.00 81 1019.4
20260830144226 71 187 0.0 0.9 0.00 0.00 0.00 82 1019.7
20260830143722 71 195 0.9 0.9 0.00 0.00 0.00 79 1019.4
20260830143220 71 192 0.9 0.9 0.00 0.00 0.00 80 1019.4
20260830142716 70 184 0.9 1.7 0.00 0.00 0.00 80 1019.3
20260830142210 69 240 2.6 3.5 0.00 0.00 0.00 79 1019.4